Location: Bethera
(33.2010°N, 79.7880°W)
Time: 03:26:00
(UTC-04:00)

Amateur Radio Satellites - All Passes

Search period start: 24 October 2017 02:56
Search period end: 25 October 2017 02:56
Location: Bethera, 33.2010°N, 79.7880°W

Satellite Date Start Highest point End Downlink Frequencies (MHz)
Time Altitude Azimuth
AO-7 24 Oct 03:06:33 03:08:50 11° 92° (E) 03:11:06 .
ITUPSAT 1 24 Oct 03:12:19 03:16:18 27° 70° (ENE) 03:20:19 437.325
BEESAT 24 Oct 03:24:35 03:28:57 37° 72° (ENE) 03:33:21 436.000
DX 1 24 Oct 03:29:28 03:31:15 12° 267° (W) 03:33:02 434.975-435.025
RS-15 24 Oct 03:35:41 03:44:21 21° 326° (NW) 03:53:01 29.354- 29.394
MOZHAYETS 4 24 Oct 03:40:54 03:45:28 63° 76° (ENE) 03:50:03
UKube-1 24 Oct 03:44:31 03:46:35 13° 266° (W) 03:48:38 .
Gurwin Techsat 1B 24 Oct 03:54:23 03:59:11 35° 289° (WNW) 04:03:58 435.225
CUBESAT XI-V 24 Oct 04:04:10 04:07:43 22° 70° (ENE) 04:11:14 437.345
JUGNU 24 Oct 04:08:02 04:10:52 14° 166° (SSE) 04:13:43 437.505
M-CUBED/EXP-1 PRIME 24 Oct 04:13:32 04:15:48 15° 294° (WNW) 04:18:08 437.505
KKS-1 24 Oct 04:40:29 04:42:53 14° 67° (ENE) 04:45:17 437.445
ITUPSAT 1 24 Oct 04:50:01 04:54:00 26° 263° (W) 04:57:59 437.325
AO-7 24 Oct 04:54:11 05:02:32 79° 106° (ESE) 05:10:52 .
BEESAT 24 Oct 05:03:31 05:06:46 18° 265° (W) 05:10:03 436.000
ITAMSAT 1 24 Oct 05:10:50 05:16:04 78° 285° (WNW) 05:21:17 435.822/435.867
CUBESAT XI-V 24 Oct 05:40:53 05:44:52 28° 263° (W) 05:48:52 437.345
SO-50 24 Oct 05:45:01 05:49:09 38° 114° (ESE) 05:53:19 436.795
O/OREOS (USA 219) 24 Oct 05:47:24 05:50:44 19° 62° (ENE) 05:54:03 437.305
DOVE 4 24 Oct 05:53:54 05:58:43 39° 98° (E) 06:03:38 437.250
JUGNU 24 Oct 05:54:54 05:59:13 21° 175° (S) 06:03:30 437.505
RS-15 24 Oct 06:01:18 06:04:14 11° 4° (N) 06:07:08 29.354- 29.394
KKS-1 24 Oct 06:14:50 06:19:01 42° 260° (W) 06:23:14 437.445
STARS 24 Oct 06:35:18 06:39:38 66° 258° (WSW) 06:44:02 437.465
STRAND 1 24 Oct 06:38:23 06:39:24 11° 63° (ENE) 06:40:25 437.568
KAITUO 1B 24 Oct 06:39:22 06:41:19 14° 94° (E) 06:43:15 145.475/437.950
SRMSAT 24 Oct 06:40:04 06:41:57 12° 164° (SSE) 06:43:51 437.500
NUDT-PHONESAT 24 Oct 06:46:04 06:48:23 16° 95° (E) 06:50:42 437.300
XW-2F 24 Oct 06:47:34 06:50:37 24° 97° (E) 06:53:39 145.980 - 146.000
AO-7 24 Oct 06:48:46 06:54:21 20° 303° (WNW) 06:59:58 .
PCSat 24 Oct 07:00:55 07:05:21 27° 107° (ESE) 07:09:49 145.827
LilacSat-2 24 Oct 07:01:26 07:05:03 44° 99° (E) 07:08:39 437.200
XW-2D 24 Oct 07:02:58 07:06:33 44° 99° (E) 07:10:08 145.860 - 145.880
XW-2B 24 Oct 07:16:29 07:20:12 67° 101° (E) 07:23:54 145.730 - 145.750
O/OREOS (USA 219) 24 Oct 07:26:05 07:30:10 32° 257° (WSW) 07:34:13 437.305
SO-50 24 Oct 07:26:33 07:29:43 19° 309° (NW) 07:32:54 436.795
ISS 24 Oct 07:30:18 07:31:21 11° 126° (SE) 07:32:25 437.550
DOVE 4 24 Oct 07:32:16 07:36:05 21° 291° (WNW) 07:39:59 437.250
XW-2C 24 Oct 07:40:03 07:43:42 53° 284° (WNW) 07:47:20 145.795 - 145.815
JUGNU 24 Oct 07:43:19 07:47:35 21° 185° (S) 07:51:51 437.505
CUTE-I 24 Oct 07:49:58 07:55:21 77° 285° (WNW) 08:00:42 437.470
HO-68 24 Oct 07:59:03 08:05:56 46° 100° (E) 08:12:46 435.675
FO-29 24 Oct 08:01:06 08:02:29 11° 60° (ENE) 08:03:54 435.910
KAITUO 1B 24 Oct 08:12:08 08:15:17 27° 287° (WNW) 08:18:26 145.475/437.950
STRAND 1 24 Oct 08:12:44 08:17:51 77° 257° (WSW) 08:23:01 437.568
RS-15 24 Oct 08:13:40 08:23:13 27° 40° (NE) 08:32:20 29.354- 29.394
NUDT-PHONESAT 24 Oct 08:19:15 08:22:10 23° 288° (WNW) 08:25:04 437.300
nSIGHT-1 24 Oct 08:20:21 08:23:29 58° 134° (SE) 08:26:38 .
XW-2F 24 Oct 08:22:08 08:24:30 16° 290° (WNW) 08:26:52 145.980 - 146.000
SRMSAT 24 Oct 08:26:17 08:30:25 20° 173° (S) 08:34:34 437.500
SEEDS 24 Oct 08:27:03 08:31:09 52° 100° (E) 08:35:13 437.485
CUTE 1.7 + AOD 2 24 Oct 08:28:20 08:32:33 84° 281° (WNW) 08:36:45 437.475
ZACube-1 24 Oct 08:35:35 08:38:08 15° 93° (E) 08:40:38 437.345
CUBEBUG 2 24 Oct 08:37:27 08:41:58 66° 100° (E) 08:46:19 437.445
AAUSAT CUBESAT 2 24 Oct 08:38:08 08:41:43 28° 97° (E) 08:45:16 437.432
PCSat 24 Oct 08:43:40 08:48:33 34° 302° (WNW) 08:53:28 145.827
XW-2A 24 Oct 08:44:53 08:48:06 45° 100° (E) 08:51:17 145.665 - 145.685
YUBILEINY 24 Oct 09:02:45 09:10:41 42° 88° (E) 09:18:39 435.215
Oscar 11 24 Oct 09:04:01 09:07:11 20° 95° (E) 09:10:20 .
ISS 24 Oct 09:04:20 09:07:28 47° 319° (NW) 09:10:38 437.550
UWE-3 24 Oct 09:06:24 09:10:50 80° 101° (E) 09:15:06 435.000/436.395/437.385
UNISAT 6 24 Oct 09:22:34 09:25:19 16° 67° (ENE) 09:28:05 437.425
NO-84 24 Oct 09:28:22 09:31:31 23° 39° (NE) 09:34:29 435.350 FM
JUGNU 24 Oct 09:33:13 09:35:55 13° 195° (SSW) 09:38:38 437.505
TIGRISAT 24 Oct 09:35:25 09:38:46 20° 69° (ENE) 09:42:09 435.000
FO-29 24 Oct 09:41:30 09:46:41 75° 258° (WSW) 09:52:18 435.910
AO-73 24 Oct 09:45:27 09:49:43 79° 284° (WNW) 09:53:54 145.935
HO-68 24 Oct 09:47:20 09:53:18 29° 295° (WNW) 09:59:16 435.675
nSIGHT-1 24 Oct 09:58:22 10:00:01 13° 329° (NNW) 10:01:39 .
SEEDS 24 Oct 10:05:52 10:06:18 10° 293° (WNW) 10:06:45 437.485
ZACube-1 24 Oct 10:10:36 10:14:29 33° 287° (WNW) 10:18:15 437.345
AAUSAT CUBESAT 2 24 Oct 10:14:05 10:16:54 18° 290° (WNW) 10:19:43 437.432
SRMSAT 24 Oct 10:14:34 10:18:58 22° 183° (S) 10:23:21 437.500
RS-15 24 Oct 10:25:28 10:37:19 88° 244° (WSW) 10:48:29 29.354- 29.394
BEESAT 3 24 Oct 10:36:47 10:39:46 21° 110° (ESE) 10:42:46 437.485
EO-88 24 Oct 10:38:45 10:41:44 23° 97° (E) 10:44:40 145.990 - 145.960
Oscar 11 24 Oct 10:39:38 10:43:15 27° 288° (WNW) 10:46:50 .
PRISM 24 Oct 10:41:00 10:44:50 46° 74° (ENE) 10:48:44 437.425
UNISAT 6 24 Oct 10:57:10 11:01:34 43° 261° (W) 11:06:04 437.425
Max Valier Satellite 24 Oct 10:58:16 11:01:55 70° 102° (ESE) 11:05:31 145.860
DELFI C3 24 Oct 10:59:41 11:03:40 77° 282° (WNW) 11:07:37 145.870
YUBILEINY 24 Oct 10:59:41 11:07:25 35° 285° (WNW) 11:15:14 435.215
NO-84 24 Oct 11:05:42 11:08:51 27° 237° (WSW) 11:11:46 435.350 FM
AIST 2D 24 Oct 11:09:17 11:11:47 19° 72° (ENE) 11:14:17 435.315
TIGRISAT 24 Oct 11:10:57 11:15:09 33° 262° (W) 11:19:24 435.000
NANOSAT C BR1 24 Oct 11:27:13 11:28:30 11° 66° (ENE) 11:29:47 145.865
QB50P2 24 Oct 11:27:28 11:29:52 15° 68° (ENE) 11:32:17 145.880/145.840
DUCHIFAT 1 24 Oct 11:34:57 11:36:37 12° 67° (ENE) 11:38:18 145.980
ESTCUBE 1 24 Oct 11:46:27 11:49:03 15° 94° (E) 11:51:39 437.505/2401.250
SRMSAT 24 Oct 12:04:07 12:07:28 15° 193° (SSW) 12:10:50 437.500
BEESAT 2 24 Oct 12:07:02 12:10:59 68° 116° (ESE) 12:15:00 435.950
EO-88 24 Oct 12:12:55 12:15:08 16° 290° (WNW) 12:17:20 145.990 - 145.960
BEESAT 3 24 Oct 12:13:46 12:17:08 26° 305° (NW) 12:20:31 437.485
EO-79 24 Oct 12:34:15 12:38:31 88° 77° (ENE) 12:42:49 145.935-145.965
POLYITAN 1 24 Oct 12:40:18 12:44:34 78° 258° (WSW) 12:48:52 437.675
RS-15 24 Oct 12:41:24 12:47:51 17° 262° (W) 12:54:12 29.354- 29.394
AIST 2D 24 Oct 12:42:22 12:44:48 18° 264° (W) 12:47:16 435.315
LO-87 24 Oct 12:46:40 12:50:11 51° 285° (WNW) 12:53:40 145.935 - 145.965
AO-85 24 Oct 12:46:42 12:50:32 69° 299° (WNW) 12:54:27 145.980
VELOX 1 24 Oct 12:53:07 12:55:03 13° 93° (E) 12:56:59 145.980
BUGSAT 1 24 Oct 12:57:49 13:01:22 27° 71° (ENE) 13:04:58 437.445
NANOSAT C BR1 24 Oct 12:59:35 13:03:42 50° 260° (W) 13:07:51 145.865
QB50P2 24 Oct 13:01:20 13:05:17 37° 261° (W) 13:09:17 145.880/145.840
DUCHIFAT 1 24 Oct 13:07:44 13:11:49 46° 260° (W) 13:15:55 145.980
SPROUT 24 Oct 13:07:47 13:11:33 29° 97° (E) 13:15:17 437.525
M-CUBED/EXP-1 PRIME 24 Oct 13:21:39 13:23:43 16° 66° (ENE) 13:25:46 437.505
ESTCUBE 1 24 Oct 13:21:47 13:25:56 38° 287° (WNW) 13:30:05 437.505/2401.250
Gurwin Techsat 1B 24 Oct 13:32:08 13:36:24 25° 68° (ENE) 13:40:41 435.225
DX 1 24 Oct 13:45:51 13:46:40 10° 93° (E) 13:47:29 434.975-435.025
50 SAT 24 Oct 13:56:13 13:58:06 14° 95° (E) 13:59:59 437.505
AO-7 24 Oct 14:01:30 14:05:04 13° 53° (NE) 14:08:37 .
Oscar 19 24 Oct 14:02:32 14:07:41 76° 75° (ENE) 14:12:50 437.125/150
SO-50 24 Oct 14:21:21 14:23:37 13° 48° (NE) 14:25:54 436.795
VELOX 1 24 Oct 14:27:25 14:31:40 45° 286° (WNW) 14:35:54 145.980
BUGSAT 1 24 Oct 14:33:41 14:36:40 19° 265° (W) 14:39:41 437.445
SPROUT 24 Oct 14:44:12 14:47:10 19° 291° (WNW) 14:50:08 437.525
ITAMSAT 1 24 Oct 14:49:43 14:50:53 11° 62° (ENE) 14:52:03 435.822/435.867
nSIGHT-1 24 Oct 14:51:57 14:53:17 12° 30° (NNE) 14:54:38 .
M-CUBED/EXP-1 PRIME 24 Oct 14:55:31 14:58:00 19° 258° (WSW) 15:00:27 437.505
Gurwin Techsat 1B 24 Oct 15:11:24 15:16:07 33° 262° (W) 15:20:53 435.225
DX 1 24 Oct 15:18:48 15:23:04 52° 286° (WNW) 15:27:19 434.975-435.025
50 SAT 24 Oct 15:27:49 15:30:18 20° 288° (WNW) 15:32:46 437.505
BEESAT 24 Oct 15:30:35 15:32:42 13° 93° (E) 15:34:49 436.000
UKube-1 24 Oct 15:32:58 15:37:14 58° 285° (WNW) 15:41:28 .
ISS 24 Oct 15:35:37 15:38:21 24° 36° (NE) 15:41:07 437.550
MOZHAYETS 4 24 Oct 15:40:58 15:44:19 20° 95° (E) 15:47:39
AO-7 24 Oct 15:48:10 15:56:25 74° 71° (ENE) 16:04:41 .
PCSat 24 Oct 15:55:48 15:56:13 10° 47° (NE) 15:56:38 145.827
SO-50 24 Oct 15:59:52 16:04:27 65° 244° (WSW) 16:09:06 436.795
ITAMSAT 1 24 Oct 16:24:26 16:29:37 78° 258° (WSW) 16:34:50 435.822/435.867
nSIGHT-1 24 Oct 16:26:41 16:29:53 71° 224° (SW) 16:33:03 .
ITUPSAT 1 24 Oct 16:53:41 16:58:27 73° 284° (WNW) 17:03:11 437.325
DOVE 4 24 Oct 16:56:24 16:59:30 20° 69° (ENE) 17:02:42 437.250
BEESAT 24 Oct 17:06:04 17:10:41 51° 286° (WNW) 17:15:17 436.000
ISS 24 Oct 17:12:04 17:14:45 24° 231° (SW) 17:17:26 437.550
MOZHAYETS 4 24 Oct 17:17:28 17:21:26 30° 289° (WNW) 17:25:23
CUTE-I 24 Oct 17:31:24 17:33:25 12° 63° (ENE) 17:35:25 437.470
PCSat 24 Oct 17:35:01 17:40:27 79° 64° (ENE) 17:45:51 145.827
CUBESAT XI-V 24 Oct 17:40:38 17:45:15 86° 287° (WNW) 17:49:53 437.345
LilacSat-2 24 Oct 17:40:49 17:42:32 13° 69° (ENE) 17:44:15 437.200
XW-2D 24 Oct 17:41:46 17:43:22 12° 69° (ENE) 17:44:57 145.860 - 145.880
AO-7 24 Oct 17:44:16 17:49:44 19° 265° (W) 17:55:14 .
XW-2B 24 Oct 17:54:22 17:56:54 17° 70° (ENE) 17:59:26 145.730 - 145.750
KKS-1 24 Oct 18:09:34 18:13:55 49° 100° (E) 18:18:14 437.445
XW-2C 24 Oct 18:16:52 18:20:19 35° 74° (ENE) 18:23:47 145.795 - 145.815
HO-68 24 Oct 18:24:29 18:29:45 23° 62° (ENE) 18:35:02 435.675
STARS 24 Oct 18:28:59 18:32:53 30° 98° (E) 18:36:45 437.465
DOVE 4 24 Oct 18:33:29 18:36:59 26° 264° (W) 18:40:38 437.250
KAITUO 1B 24 Oct 18:46:54 18:50:35 64° 76° (ENE) 18:54:16 145.475/437.950
NUDT-PHONESAT 24 Oct 18:52:55 18:56:36 75° 77° (ENE) 19:00:18 437.300
XW-2F 24 Oct 18:57:02 19:00:47 66° 259° (WSW) 19:04:32 145.980 - 146.000
CUTE-I 24 Oct 19:07:28 19:12:46 72° 258° (WSW) 19:18:06 437.470
LilacSat-2 24 Oct 19:12:59 19:16:28 33° 262° (W) 19:19:56 437.200
XW-2D 24 Oct 19:13:43 19:17:10 34° 262° (W) 19:20:38 145.860 - 145.880
SEEDS 24 Oct 19:15:05 19:18:12 21° 71° (ENE) 19:21:19 437.485
CUTE 1.7 + AOD 2 24 Oct 19:16:36 19:20:29 37° 74° (ENE) 19:24:23 437.475
YUBILEINY 24 Oct 19:19:49 19:24:43 16° 67° (ENE) 19:29:35 435.215
AAUSAT CUBESAT 2 24 Oct 19:26:21 19:27:26 11° 67° (ENE) 19:28:32 437.432
XW-2B 24 Oct 19:27:46 19:30:51 24° 263° (W) 19:33:57 145.730 - 145.750
CUBEBUG 2 24 Oct 19:30:46 19:34:58 33° 72° (ENE) 19:39:14 437.445
KKS-1 24 Oct 19:47:58 19:49:59 13° 294° (WNW) 19:52:00 437.445
XW-2C 24 Oct 19:53:17 19:54:34 11° 267° (W) 19:55:52 145.795 - 145.815
O/OREOS (USA 219) 24 Oct 19:54:25 19:58:46 46° 105° (ESE) 20:03:10 437.305
UWE-3 24 Oct 19:58:30 20:02:47 38° 73° (ENE) 20:07:07 435.000/436.395/437.385
STARS 24 Oct 20:05:47 20:08:59 20° 291° (WNW) 20:12:10 437.465
HO-68 24 Oct 20:09:50 20:16:52 60° 258° (WSW) 20:23:59 435.675
STRAND 1 24 Oct 20:27:34 20:32:35 52° 100° (E) 20:37:34 437.568
BEESAT 2 24 Oct 20:30:16 20:31:52 12° 49° (NE) 20:33:27 435.950
BEESAT 3 24 Oct 20:33:33 20:37:20 43° 58° (ENE) 20:41:02 437.485
AO-73 24 Oct 20:35:55 20:40:16 45° 74° (ENE) 20:44:37 145.935
XW-2A 24 Oct 20:43:55 20:47:09 41° 261° (W) 20:50:23 145.665 - 145.685
SEEDS 24 Oct 20:50:18 20:53:42 24° 264° (W) 20:57:07 437.485
CUTE 1.7 + AOD 2 24 Oct 20:54:17 20:56:24 14° 267° (W) 20:58:32 437.475
FO-29 24 Oct 20:54:21 20:59:54 22° 94° (E) 21:05:39 435.910
AAUSAT CUBESAT 2 24 Oct 20:58:28 21:02:25 46° 261° (W) 21:06:22 437.432
ZACube-1 24 Oct 21:00:47 21:05:22 79° 260° (W) 21:09:58 437.345
CUBEBUG 2 24 Oct 21:08:11 21:11:35 20° 266° (W) 21:15:01 437.445
YUBILEINY 24 Oct 21:13:42 21:22:33 88° 265° (W) 21:31:24 435.215
AO-85 24 Oct 21:20:56 21:25:06 31° 56° (ENE) 21:29:30 145.980
Oscar 11 24 Oct 21:29:08 21:33:24 61° 259° (W) 21:37:42 .
Max Valier Satellite 24 Oct 21:33:47 21:36:09 16° 70° (ENE) 21:38:31 145.860
O/OREOS (USA 219) 24 Oct 21:35:59 21:38:25 14° 300° (WNW) 21:40:52 437.305
UWE-3 24 Oct 21:36:17 21:39:17 17° 266° (W) 21:42:19 435.000/436.395/437.385
DELFI C3 24 Oct 21:40:47 21:44:12 30° 73° (ENE) 21:47:37 145.870
BEESAT 2 24 Oct 22:05:58 22:09:53 52° 245° (WSW) 22:13:44 435.950
STRAND 1 24 Oct 22:08:16 22:11:17 16° 294° (WNW) 22:14:17 437.568
BEESAT 3 24 Oct 22:13:21 22:14:24 11° 253° (WSW) 22:15:27 437.485
AO-73 24 Oct 22:14:26 22:16:38 13° 267° (W) 22:18:51 145.935
RS-15 24 Oct 22:34:13 22:42:12 20° 100° (E) 22:50:11 29.354- 29.394
FO-29 24 Oct 22:37:54 22:45:05 64° 286° (WNW) 22:52:47 435.910
EO-88 24 Oct 22:44:36 22:48:13 72° 259° (WSW) 22:51:52 145.990 - 145.960
UNISAT 6 24 Oct 22:52:58 22:57:25 54° 100° (E) 23:01:44 437.425
AO-85 24 Oct 23:01:27 23:05:24 26° 248° (WSW) 23:09:32 145.980
TIGRISAT 24 Oct 23:06:17 23:10:48 72° 101° (E) 23:15:12 435.000
Max Valier Satellite 24 Oct 23:06:39 23:09:44 24° 263° (W) 23:12:49 145.860
YUBILEINY 24 Oct 23:14:12 23:17:59 14° 282° (WNW) 23:21:48 435.215
DELFI C3 24 Oct 23:16:50 23:18:58 14° 266° (W) 23:21:05 145.870
LO-87 24 Oct 23:18:21 23:21:27 28° 73° (ENE) 23:24:35 145.935 - 145.965
SPROUT 24 Oct 23:58:13 00:00:25 14° 67° (ENE) 00:02:36 437.525
PRISM 25 Oct 00:01:03 00:05:06 56° 285° (WNW) 00:09:10 437.425
AIST 2D 25 Oct 00:10:06 00:13:22 38° 99° (E) 00:16:38 435.315
ESTCUBE 1 25 Oct 00:16:22 00:20:50 73° 258° (WSW) 00:25:19 437.505/2401.250
EO-79 25 Oct 00:23:56 00:26:59 19° 95° (E) 00:30:02 145.935-145.965
POLYITAN 1 25 Oct 00:29:54 00:33:15 22° 96° (E) 00:36:34 437.675
UNISAT 6 25 Oct 00:32:02 00:33:33 12° 295° (WNW) 00:35:03 437.425
NO-84 25 Oct 00:39:57 00:42:49 18° 121° (ESE) 00:45:46 435.350 FM
RS-15 25 Oct 00:40:47 00:53:04 88° 297° (WNW) 01:05:28 29.354- 29.394
NANOSAT C BR1 25 Oct 00:48:03 00:51:53 33° 98° (E) 00:55:40 145.865
QB50P2 25 Oct 00:49:59 00:54:04 45° 99° (E) 00:58:06 145.880/145.840
LO-87 25 Oct 00:53:15 00:54:52 13° 266° (W) 00:56:30 145.935 - 145.965
DUCHIFAT 1 25 Oct 00:55:47 00:59:40 35° 98° (E) 01:03:31 145.980
VELOX 1 25 Oct 01:19:49 01:24:11 90° 66° (ENE) 01:28:35 145.980
SPROUT 25 Oct 01:31:52 01:35:53 40° 261° (W) 01:39:57 437.525
50 SAT 25 Oct 01:51:04 01:54:12 50° 75° (ENE) 01:57:23 437.505
Gurwin Techsat 1B 25 Oct 01:53:45 01:56:14 13° 93° (E) 01:58:44 435.225
EO-79 25 Oct 01:59:06 02:02:41 27° 289° (WNW) 02:06:15 145.935-145.965
POLYITAN 1 25 Oct 02:05:32 02:08:54 23° 289° (WNW) 02:12:13 437.675
DX 1 25 Oct 02:09:36 02:13:54 76° 76° (ENE) 02:18:14 434.975-435.025
NO-84 25 Oct 02:15:50 02:19:55 46° 315° (NW) 02:24:04 435.350 FM
BUGSAT 1 25 Oct 02:18:04 02:22:16 85° 102° (ESE) 02:26:24 437.445
Oscar 19 25 Oct 02:18:37 02:23:20 37° 98° (E) 02:28:02 437.125/150
UKube-1 25 Oct 02:22:44 02:26:57 65° 76° (ENE) 02:31:13 .
NANOSAT C BR1 25 Oct 02:24:39 02:27:16 16° 291° (WNW) 02:29:51 145.865
QB50P2 25 Oct 02:27:43 02:29:23 12° 293° (WNW) 02:31:03 145.880/145.840
DUCHIFAT 1 25 Oct 02:32:34 02:34:59 15° 292° (WNW) 02:37:23 145.980
M-CUBED/EXP-1 PRIME 25 Oct 02:35:46 02:39:04 27° 103° (ESE) 02:42:34 437.505
MOZHAYETS 4 25 Oct 02:40:05 02:42:05 13° 66° (ENE) 02:44:05
